Location: Dolní ?ernošice
(49.9667°N, 14.3333°E)
Time: 09:30:43
(UTC+00:00)

Daily predictions for brighter satellites

Satellite Brightness Start Highest point End
(mag) Time Altitude Azimuth Time Altitude Azimuth Time Altitude Azimuth
Cosmos 540 Rocket 4.1 15:43:32 10° N 15:48:14 35° NE 15:52:54 10° ESE
IGS 5A 3.4 15:45:00 10° SSE 15:48:56 61° ENE 15:52:54 10° N
Cosmos 921 Rocket 3.2 15:46:04 10° SSW 15:50:26 83° WNW 15:54:54 10° NNE
Cosmos 1802 Rocket 4.1 15:44:42 10° S 15:51:07 81° E 15:57:34 10° N
Cosmos 1908 Rocket 3.6 15:48:04 10° S 15:52:30 88° E 15:56:58 10° N
Cosmos 1763 Rocket 3.8 15:48:36 10° NNW 15:53:36 44° ENE 15:58:31 10° SE
Cosmos 1975 Rocket 3.4 15:50:52 10° N 15:55:02 43° ENE 15:59:12 10° SSE
SWARM A 4.2 15:53:43 10° N 15:57:04 82° E 16:00:22 10° S
CORIOLIS 4.2 15:53:35 10° SSE 15:58:51 63° ENE 16:04:09 10° N
Cosmos 1140 Rocket 3.6 15:55:49 10° S 16:00:52 57° ESE 16:05:55 10° NNE
IRS-1C 4.2 15:59:02 10° SE 16:04:13 56° ENE 16:09:26 10° N
Cosmos 1812 3.9 16:03:27 10° ESE 16:04:50 13° E 16:05:46 11° ENE
SMAP 3.1 16:00:41 10° SSE 16:05:17 64° ENE 16:09:54 10° N
Cosmos 2058 4.0 16:03:23 10° NNE 16:06:29 21° ENE 16:09:33 10° ESE
Cosmos 1943 Rocket 3.0 16:02:16 10° SSE 16:07:09 31° ESE 16:12:01 10° NE
Tsikada Rocket 4.1 16:01:18 10° N 16:07:46 81° E 16:14:07 10° SSE
Cosmos 2016 Rocket 4.1 16:01:29 10° S 16:07:48 89° E 16:14:13 10° N
Cosmos 2082 Rocket 2.7 16:04:46 10° NNW 16:10:00 38° NE 16:15:12 10° ESE
Meteor 1-28 Rocket 3.0 16:07:39 10° NNE 16:11:03 81° WNW 16:14:24 10° SSW
Cosmos 1269 Rocket 4.0 16:08:31 10° SSW 16:13:46 80° ESE 16:19:04 10° NNE
Aureole 3 Rocket 3.7 16:12:51 10° SE 16:15:05 19° E 16:16:59 12° NE
Cosmos 2278 Rocket 2.9 16:10:30 10° S 16:15:33 35° ESE 16:20:38 10° NE
SAR-Lupe-5 4.5 16:13:27 10° N 16:16:04 70° WNW 16:18:41 10° SSW
CZ-2D R/B 4.4 16:13:26 10° ESE 16:16:53 26° ENE 16:20:23 10° N
Landsat 7 3.8 16:13:10 10° SSE 16:17:45 61° ENE 16:22:21 10° N
SL-16 R/B 2.9 16:15:09 10° NNE 16:21:25 72° WNW 16:27:37 10° SSW
Thor Agena Rocket 4.0 16:17:03 10° S 16:22:18 69° WSW 16:27:34 10° NNW
Cosmos 2251 Rocket 4.3 16:23:32 10° SSE 16:28:05 30° E 16:32:12 12° NE
Cosmos 2344 4.1 16:21:47 10° NW 16:28:57 45° NNE 16:37:27 12° E
TIMED 4.4 16:25:01 10° SSW 16:29:16 78° ESE 16:33:33 10° NNE
CZ-4C R/B 3.3 16:27:54 10° W 16:32:14 32° NNW 16:37:38 10° NE
Cosmos 841 Rocket 4.3 16:28:28 10° N 16:33:04 29° NE 16:37:11 12° ESE
ATLAS 2AS CENTAUR R/B 3.6 16:27:58 10° NW 16:33:59 31° NNE 16:38:09 17° ENE
UNK 3.8 16:29:49 10° NNE 16:34:28 86° WNW 16:39:04 10° SSW
Nadezhda 4 Rocket 4.4 16:28:42 10° N 16:34:36 40° ENE 16:40:24 10° SE
YAOGAN 1 3.3 16:31:41 10° SE 16:35:22 29° ENE 16:39:05 10° N
SAR-Lupe-1 4.1 16:31:50 10° SSE 16:35:23 82° WSW 16:38:59 10° NNW
SJ 16-02 2.5 16:35:02 10° SSE 16:38:20 22° E 16:39:07 21° E
COSMOS 2406 3.7 16:37:17 10° NNW 16:42:34 38° NE 16:47:00 14° ESE
Cosmos 2084 Rocket 4.2 16:39:02 10° WSW 16:43:05 47° NW 16:46:22 15° NNE
ATLAS CENTAUR R/B 3.3 16:43:39 10° WNW 16:45:49 16° NNW 16:47:59 10° N
SAR-Lupe-4 4.4 16:42:34 10° S 16:46:05 52° W 16:49:36 10° NNW
ARIANE 5 R/B 2.8 16:41:42 10° S 16:46:39 69° WSW 16:51:40 10° NNW
Cosmos 468 Rocket 3.9 16:41:42 10° NNW 16:46:54 63° ENE 16:52:00 10° SE
Resurs 1-3 4.1 16:43:13 10° SE 16:47:08 35° ENE 16:51:04 10° N
Cosmos 1833 Rocket 4.5 16:42:13 10° NW 16:47:18 35° WSW 16:52:22 10° S
Cosmos 1862 3.5 16:44:06 10° N 16:47:30 36° ENE 16:50:53 10° SE
Meteor 2-12 Rocket 4.5 16:46:38 10° NNW 16:52:46 83° W 16:58:48 10° S
USA 215 4.0 16:46:44 10° SE 16:53:07 54° SW 16:59:32 10° WNW
Cosmos 1536 Rocket 3.7 16:52:33 10° N 16:56:54 50° ENE 17:01:11 10° SSE
IRS-P3 4.3 16:52:03 10° SSE 16:57:23 79° WSW 17:02:45 10° NNW
SAR-Lupe-3 4.1 16:55:51 19° N 16:57:36 65° WNW 17:00:13 10° SSW
Cosmos 1190 Rocket 4.3 16:54:02 10° S 16:59:02 45° ESE 17:02:12 21° NE
Okean 2 Rocket 3.6 16:55:16 10° SSE 16:59:15 35° E 17:00:34 29° NE
MOS 1 Rocket 3.1 16:55:14 10° SSE 16:59:33 90° W 17:04:07 10° NNW
ATLAS 5 CENTAUR R/B 4.1 16:57:47 10° WNW 17:01:34 26° WSW 17:06:02 10° S
Timation 2 Rocket 4.1 16:55:42 10° SSW 17:02:35 82° ESE 17:09:03 12° NNE
Meteor 2-3 Rocket 4.2 16:57:19 10° N 17:02:37 38° ENE 17:07:27 12° SE
Resurs 01 Rocket 3.0 17:08:57 22° NNE 17:08:57 22° NNE 17:11:04 10° N
CZ-4 R/B 4.3 17:05:25 10° SSE 17:09:23 87° WSW 17:13:23 10° NNW
Cosmos 1602 3.2 17:06:45 10° NNW 17:09:49 77° W 17:12:52 10° S
RESURS DK-1 3.5 17:06:14 10° NW 17:10:03 44° WSW 17:13:51 10° S
Cosmos 407 Rocket 3.6 17:05:21 10° SSW 17:10:31 76° WNW 17:15:22 12° NNE
Cosmos 1954 Rocket 4.2 17:07:00 10° S 17:12:02 47° ESE 17:14:07 31° NE
ISS -3.9 17:13:43 10° WSW 17:17:03 74° SSE 17:17:12 72° SE
USA 281 3.7 17:15:07 30° E 17:17:18 38° NE 17:23:16 10° NNW
Cosmos 1869 4.1 17:14:15 10° SSW 17:17:37 43° WNW 17:21:00 10° N
SPOT 1/Viking Rocket 3.5 17:13:24 10° SSE 17:18:34 85° WSW 17:23:48 10° NNW
COSMO-SKYMED 1 2.4 17:21:26 49° NE 17:22:13 59° E 17:26:17 10° S
Cosmos 1464 Rocket 3.9 17:18:36 10° S 17:24:53 78° E 17:31:08 10° NNE
SL-12 R/B(2) 4.4 17:21:04 10° SW 17:29:11 85° NW 17:36:59 19° NE
BREEZE-M DEB (TANK) 2.6 17:28:15 10° WSW 17:31:04 76° SSE 17:32:21 48° E
Cosmos 1400 Rocket 2.6 17:27:43 10° S 17:31:12 70° SSE 17:31:12 70° SSE
Spot 4 Rocket 4.1 17:27:17 10° S 17:32:22 76° WSW 17:37:31 10° NNW
Cosmos 1812 3.8 17:34:22 10° SW 17:37:01 31° WNW 17:37:34 29° NW
Cosmos 2034 Rocket 3.9 17:31:58 10° S 17:38:05 68° E 17:44:20 10° NNE
Cosmos 2151 Rocket 3.8 17:37:41 10° SSW 17:42:09 72° W 17:45:29 18° N
Cosmos 2058 4.2 17:39:03 10° NNW 17:42:46 39° W 17:46:28 10° SSW
Cosmos 44 Rocket 3.5 17:41:02 10° SW 17:45:48 67° NW 17:47:06 46° NNE
SKYMED 2 4.2 17:45:23 16° N 17:48:47 55° WNW 17:53:01 10° SSW
Helios 1A Rocket 4.1 17:51:58 29° SW 17:51:58 29° SW 17:53:45 10° SSW
Cosmos 1943 Rocket 2.9 17:45:12 10° SW 17:50:39 51° NW 17:54:09 22° NNE
Cosmos 1092 Rocket 3.8 17:45:20 10° N 17:51:37 70° ENE 17:54:58 29° SSE
Okean 1 Rocket 3.0 17:47:37 10° S 17:51:43 77° SSW 17:51:43 77° SSW
Sich 1 Rocket 3.6 17:48:31 10° SSW 17:53:04 83° W 17:53:29 73° NNW
PSLV R/B 4.2 17:49:15 10° S 17:53:10 49° W 17:57:07 10° NNW
Cosmos 2082 Rocket 3.2 17:48:51 10° NW 17:54:10 45° WSW 17:59:28 10° S
Cosmos 2026 Rocket 3.8 17:52:01 10° N 17:58:09 85° E 18:04:17 10° S
Meteor 2-1 Rocket 4.2 17:53:17 10° S 17:59:11 80° E 18:02:22 29° NNE
Cosmos 2278 Rocket 3.0 17:54:02 10° SW 17:59:28 47° NW 18:02:47 23° N
NOAA 6 4.3 17:54:42 10° S 17:59:49 67° WSW 18:04:58 10° NNW
BREEZE-M DEB (TANK) 3.6 17:59:35 10° WSW 18:02:55 78° SSE 18:03:16 73° ESE
BREEZE-M DEB (TANK) 3.5 18:00:45 10° W 18:03:51 77° N 18:04:09 73° NNE
Geosat 4.1 18:04:10 53° S 18:05:13 69° WSW 18:10:14 10° NW
Cosmos 2369 Rocket 4.5 18:04:19 10° S 18:04:20 10° S 18:04:20 10° S
Cosmos 2251 Rocket 4.4 18:04:59 10° SW 18:10:05 47° WNW 18:12:38 27° N
YAOGAN 1 4.2 18:07:18 10° SSW 18:11:10 33° W 18:15:03 10° NNW
Cosmos 371 Rocket 3.6 18:08:42 10° SSW 18:12:52 61° WSW 18:12:52 61° WSW
Cosmos 304 Rocket 4.2 18:09:53 10° SSW 18:13:57 58° WSW 18:13:57 58° WSW
Cosmos 841 Rocket 4.2 18:10:01 10° NNW 18:15:07 52° WSW 18:17:15 32° SSW
SJ 16-02 2.3 18:12:00 10° SW 18:15:42 44° W 18:15:42 44° W
CZ-4C R/B 3.9 18:17:51 10° NW 18:22:20 23° N 18:22:36 23° N
ATLAS 2AS CENTAUR R/B 2.6 18:19:08 10° NW 18:25:35 72° NNE 18:25:35 72° NNE
COSMOS 2406 4.1 18:21:33 10° NW 18:26:58 46° WSW 18:29:08 31° SSW
Cosmos 1656 Rocket 4.4 18:24:50 10° SSW 18:28:33 44° SSW 18:28:33 44° SSW
Resurs 01 Rocket 4.0 18:46:22 19° NW 18:46:22 19° NW 18:47:45 10° NNW
Cosmos 2344 4.1 18:36:01 10° NW 18:43:56 70° SW 18:47:32 43° SSE
USA 281 3.6 19:02:00 58° W 19:02:00 58° W 19:08:05 10° NNW
